[[{"header":{"parameterUnit":"m.s-1","parameterCategory":1,"la1":30.2992,"la2":30.254,"lo1":-89.0895,"lo2":-89.0443,"dy":0.0025,"dx":0.0025,"nx":19,"ny":19,"refTime":"2026-05-02T03:00:00:Z","depth":0,"parameterNumber":2,"parameterNumberName":"U-component_of_WINDS"},"data":[0,0,0,-0.5109,-0.511,-0.5152,-0.5152,-0.5208,-0.5209,0,0,0,0,0,0,0,0,0,0,0,-0.5097,-0.5098,-0.5109,-0.511,-0.5152,-0.5152,-0.5208,-0.5209,0,0,0,0,0,0,0,0,0,0,0,-0.5097,-0.5098,-0.5098,-0.511,-0.5152,-0.5152,-0.5208,-0.5176,0,0,0,0,0,0,0,0,0,0,-0.5135,-0.5124,-0.5097,-0.5098,-0.5111,-0.5152,-0.5152,-0.5174,-0.5178,-0.519,0,-0.52,0,-0.5205,-0.5212,-0.5213,0,0,0,-0.511,-0.5121,-0.5132,-0.5098,-0.5111,-0.5152,-0.5133,-0.5176,-0.518,-0.5195,-0.5201,-0.5203,-0.5206,-0.5213,-0.5213,-0.528,-0.528,0,0,-0.5108,-0.5105,-0.5129,-0.5134,-0.5127,-0.5132,-0.5134,-0.5179,-0.5185,-0.5201,-0.5204,-0.5207,-0.5213,-0.5214,-0.528,-0.528,0,0,0,-0.5101,-0.5104,-0.5113,-0.5132,-0.5139,-0.5133,-0.5136,-0.5183,-0.5187,-0.5205,-0.5208,-0.5214,-0.5214,-0.5279,-0.528,-0.5292,0,0,0,-0.51,-0.51,-0.5112,-0.5111,-0.5138,-0.5162,-0.514,-0.5184,-0.5189,-0.5207,-0.5214,-0.5215,-0.5279,-0.5279,-0.5291,-0.5299,0,0,0,-0.5094,-0.5099,-0.5105,-0.5111,-0.5129,-0.5161,-0.5167,-0.5185,-0.5191,-0.5213,-0.5215,-0.5279,-0.5279,-0.529,-0.5297,-0.5315,0,0,0,-0.5088,-0.5117,-0.5105,-0.5138,-0.5128,-0.5168,-0.5166,-0.5196,-0.5217,-0.5214,-0.5279,-0.528,-0.529,-0.5296,-0.5314,-0.5331,-0.5337,0,0,-0.5123,-0.5121,-0.514,-0.5131,-0.5172,-0.5162,-0.5204,-0.5226,-0.5232,-0.5264,-0.5265,-0.5291,-0.5297,-0.5315,-0.5372,-0.5377,0,0,0,-0.515,-0.5164,-0.5176,-0.5194,-0.521,-0.5225,-0.524,-0.5248,-0.5275,-0.5247,-0.5303,-0.5306,-0.5317,-0.5325,-0.5329,-0.5339,-0.5283,-0.5283,-0.5283,-0.5197,-0.52,-0.5232,-0.5241,-0.5259,-0.5273,-0.5289,-0.5302,-0.5302,-0.5315,-0.5325,-0.5358,-0.5368,-0.5371,-0.5381,-0.5333,-0.5333,-0.5333,-0.5333,-0.5248,-0.5268,-0.5265,-0.5295,-0.5299,-0.5325,-0.534,-0.5339,-0.5364,-0.5352,-0.5361,-0.5348,-0.5376,-0.5385,-0.5334,-0.5334,-0.5334,-0.5334,-0.5334,-0.5279,-0.5289,-0.5297,-0.5324,-0.5344,-0.5352,-0.5376,-0.5378,-0.5382,-0.5391,-0.5402,-0.5402,-0.5402,-0.5396,-0.5396,-0.5396,-0.5396,-0.5396,-0.5396,-0.5308,-0.5317,-0.5336,-0.5355,-0.5366,-0.5382,-0.5397,-0.5409,-0.5423,-0.5423,-0.5424,-0.5422,-0.5378,-0.5367,-0.5398,-0.5398,-0.5397,-0.5397,-0.5397,-0.536,-0.5349,-0.5378,-0.539,-0.5412,-0.5431,-0.5434,-0.5458,-0.5469,-0.548,-0.5476,-0.5443,-0.5441,-0.5438,-0.5429,-0.5475,-0.5475,-0.5475,-0.5475,-0.5387,-0.5386,-0.5416,-0.5435,-0.5453,-0.5458,-0.5492,-0.5503,-0.5513,-0.552,-0.5513,-0.5501,-0.5498,-0.5499,-0.5494,-0.5486,-0.5545,-0.5545,-0.5545,-0.5419,-0.542,-0.5448,-0.5456,-0.5473,-0.5487,-0.5519,-0.5541,-0.555,-0.5548,-0.5525,-0.5522,-0.5503,-0.5497,-0.5495,-0.5487,-0.5472,0,0]},{"header":{"parameterUnit":"m.s-1","parameterCategory":1,"la1":30.2992,"la2":30.254,"lo1":-89.0895,"lo2":-89.0443,"dy":0.0025,"dx":0.0025,"nx":19,"ny":19,"refTime":"2026-05-02T03:00:00:Z","depth":0,"parameterNumber":3,"parameterNumberName":"V-component_of_WINDS"},"data":[0,0,0,-7.3511,-7.3514,-7.3649,-7.3649,-7.3827,-7.3828,0,0,0,0,0,0,0,0,0,0,0,-7.3478,-7.3479,-7.3511,-7.3515,-7.3648,-7.3649,-7.3826,-7.3828,0,0,0,0,0,0,0,0,0,0,0,-7.3477,-7.3479,-7.3481,-7.3515,-7.3648,-7.3649,-7.3826,-7.3722,0,0,0,0,0,0,0,0,0,0,-7.3591,-7.3566,-7.3478,-7.3481,-7.3516,-7.3648,-7.3649,-7.3717,-7.3729,-7.377,0,-7.381,0,-7.3822,-7.3841,-7.3842,0,0,0,-7.3509,-7.3557,-7.3588,-7.3481,-7.3517,-7.3648,-7.3587,-7.3723,-7.3737,-7.3785,-7.3812,-7.3819,-7.3825,-7.3842,-7.3843,-7.4106,-7.4107,0,0,-7.3502,-7.3504,-7.3579,-7.3596,-7.3579,-7.3582,-7.3591,-7.3731,-7.376,-7.3813,-7.3823,-7.3828,-7.3843,-7.3845,-7.4104,-7.4106,0,0,0,-7.3484,-7.3499,-7.3527,-7.3589,-7.3613,-7.3586,-7.3596,-7.3754,-7.3762,-7.3825,-7.383,-7.3845,-7.3847,-7.4103,-7.4105,-7.4183,0,0,0,-7.348,-7.3489,-7.3524,-7.3527,-7.3611,-7.3686,-7.3616,-7.3753,-7.3769,-7.383,-7.3845,-7.3849,-7.4101,-7.4104,-7.4178,-7.4219,0,0,0,-7.3467,-7.3488,-7.351,-7.3527,-7.3585,-7.3683,-7.37,-7.3756,-7.3773,-7.3842,-7.3849,-7.41,-7.4103,-7.4172,-7.4211,-7.4291,0,0,0,-7.3453,-7.3574,-7.3511,-7.3648,-7.3584,-7.3731,-7.3699,-7.3808,-7.3877,-7.3846,-7.4101,-7.4105,-7.4171,-7.4206,-7.4285,-7.4359,-7.439,0,0,-7.3607,-7.3593,-7.3673,-7.3621,-7.3781,-7.3711,-7.3882,-7.394,-7.3942,-7.405,-7.4057,-7.4179,-7.421,-7.429,-7.4561,-7.4586,0,0,0,-7.3723,-7.3781,-7.3823,-7.3891,-7.3941,-7.3987,-7.402,-7.4042,-7.4135,-7.3999,-7.4229,-7.4247,-7.4294,-7.4329,-7.435,-7.439,-7.4121,-7.4121,-7.412,-7.3943,-7.3943,-7.4077,-7.4095,-7.416,-7.4195,-7.4248,-7.4283,-7.426,-7.4315,-7.4347,-7.4512,-7.4554,-7.4569,-7.4611,-7.4385,-7.4386,-7.4386,-7.4386,-7.4169,-7.4252,-7.4224,-7.4344,-7.4343,-7.4443,-7.4481,-7.4462,-7.4554,-7.4487,-7.4528,-7.4455,-7.4597,-7.4633,-7.4392,-7.4391,-7.439,-7.439,-7.4389,-7.4314,-7.4354,-7.4381,-7.4482,-7.4558,-7.457,-7.4661,-7.4656,-7.465,-7.4691,-7.4725,-7.4724,-7.4723,-7.4708,-7.4708,-7.4709,-7.4709,-7.471,-7.471,-7.4453,-7.4482,-7.4561,-7.4628,-7.4672,-7.4729,-7.4767,-7.4809,-7.4855,-7.4843,-7.4843,-7.4817,-7.4611,-7.456,-7.4719,-7.4718,-7.4716,-7.4716,-7.4715,-7.4683,-7.4632,-7.4754,-7.4799,-7.4877,-7.4955,-7.4948,-7.5035,-7.5069,-7.5115,-7.508,-7.4929,-7.4912,-7.4895,-7.4853,-7.5079,-7.5079,-7.5079,-7.5079,-7.4806,-7.4799,-7.4924,-7.4997,-7.5067,-7.5074,-7.5212,-7.5243,-7.5266,-7.5287,-7.5253,-7.5196,-7.518,-7.5173,-7.515,-7.5111,-7.5398,-7.5398,-7.5398,-7.4948,-7.4948,-7.5067,-7.5093,-7.5154,-7.5207,-7.5337,-7.5419,-7.5434,-7.5411,-7.5303,-7.529,-7.5198,-7.5168,-7.5142,-7.5107,-7.5034,0,0]}]]